Flag for Switzerland Weather past 2 weeks in Solothurn, Solothurn, Switzerland

Now
41 °F

Quite cool.


Feels Like: 33 °F
Forecast: 27 / 65 °F
Wind: 14 mph from East

Location: Grenchen


UV Index: 0 (Low)

Visibility: N/A


Pressure: 29.86 "Hg

Humidity: 82%

Dew point: 36 °F

Location of SolothurnLocation

Historic Weather in Solothurn

°F

Solothurn temperature yesterday

Maximum temperature yesterday: 51 °F (at 3:00 PM)
Minimum temperature yesterday: 36 °F (at 11:00 PM)
Average temperature yesterday: 42 °F

Past Weeks' High & Low Weather Summary

 TemperatureHumidityPressure
High69 °F (Apr 11, 6:00 PM)99% (Apr 7, 6:00 AM)30.37 "Hg (Apr 7, 6:00 AM)
Low31 °F (Apr 16, 7:00 AM)27% (Apr 16, 4:00 PM)29.68 "Hg (Apr 4, 4:00 PM)
Average51 °F66%30.10 "Hg
* Reported Apr 4 11:00 AM — Apr 19 11:00 AM, Solothurn, Weather by CustomWeather, © 2014

Note: Actual official high and low records may vary slightly from our data, if they occured in-between our weather recording intervals... More about our weather records

Advertising

Historic Weather Conditions — Data for Previous 24 hours

 ConditionsComfort  
Time TempWeatherWind HumidityBarometerVisibility
11:00 AM
Apr 19
41 °FQuite cool.15 mph81%29.86 "HgN/A
10:00 AM41 °FQuite cool.9 mph82%29.86 "HgN/A
9:00 AM40 °FQuite cool.7 mph86%29.86 "HgN/A
8:00 AM38 °FChilly.6 mph93%29.88 "HgN/A
7:00 AM37 °FChilly.3 mph95%29.88 "HgN/A
6:00 AM36 °FChilly.3 mph97%29.90 "HgN/A
5:00 AM35 °FChilly.6 mph98%29.91 "HgN/A
4:00 AM34 °FChilly.9 mph98%29.93 "HgN/A
3:00 AM35 °FChilly.6 mph98%29.93 "HgN/A
2:00 AM35 °FChilly.5 mph98%29.96 "HgN/A
1:00 AM32 °FChilly.7 mph97%29.99 "HgN/A
12:00 AM35 °FChilly.2 mph95%29.98 "HgN/A
11:00 PM
Apr 18
36 °FChilly.2 mph93%30.01 "HgN/A
10:00 PM37 °FChilly.8 mph93%30.02 "HgN/A
9:00 PM38 °FChilly.8 mph91%30.01 "HgN/A
8:00 PM43 °FQuite cool.12 mph75%29.96 "HgN/A
7:00 PM45 °FCool.12 mph65%29.93 "HgN/A
6:00 PM46 °FCool.8 mph63%29.91 "HgN/A
5:00 PM47 °FCool.5 mph71%29.89 "HgN/A
4:00 PM50 °FCool.14 mph64%29.88 "HgN/A
3:00 PM51 °FCool.6 mph71%29.88 "HgN/A
2:00 PM49 °FCool.6 mph76%29.89 "HgN/A
1:00 PM48 °FCool.3 mph76%29.91 "HgN/A
12:00 PM47 °FCool.3 mph76%29.93 "HgN/A
Weather by CustomWeather, © 2014

See weather overview